sat.trackr.live / text

‹ back to catalog

ZACUBE-1 (TSHEPISOSAT)

NORAD 39417 · 2013-066B

PAYLOAD ACTIVE UNKNOWN

§ Identity

Operator
Country
SAFR
Launch date
2013-11-21
Launch site
DLS
Launch vehicle
Mass (kg)
RCS (m²)
0.07

Purposes: comms, tech_demo

External: N2YO · Heavens-Above · Gunter

§ Orbital elements

Epoch: 2026-09-20T04:09:04.792896Z

Period
95.88 min
Inclination
97.8156°
Eccentricity
0.0038977
Mean motion
15.01846354 rev/d
Perigee alt
534.2 km
Apogee alt
588.3 km
Semi-major
6,939.3 km
B*
2.5646e-4
RAAN
226.0092°
Arg perigee
295.0993°
Mean anomaly
64.6188°
Rev number
69,498

§ Raw data

ZACUBE-1 (TSHEPISOSAT)1 39417U 13066B   26263.17297214  .00003336  00000+0  25646-3 0  99922 39417  97.8156 226.0092 0038977 295.0993  64.6188 15.01846354694980

JSON: /api/v1/satellites/39417 · /tle

For live sub-satellite position, see the globe view (requires WebGL).

§ Visibility from observer

Set your observer location to see the next 7 days of passes ≥ 10°. The values pass through the URL so the page stays shareable.

No JS? Fill the form by hand. The geolocation button needs JavaScript.

§ Radio — SatNOGS DB

ModeDescriptionDownlinkUplink
CW 14.099 MHz CW Beacon 14.099 MHz
FSK FSK1k2 TLM 437.356 MHz
FSK FSK9K6 TLM 437.356 MHz

3 transmitters · refreshed weekly from db.satnogs.org